Location: Miami
(39.3214°N, 93.2282°W)
Time: 00:31:53
(UTC+00:00)

Envisat - Visible Passes

Search period start: 20 June 2024 00:00
Search period end: 30 June 2024 00:00
Orbit: 762 x 764 km, 98.3° (Epoch: 19 June)

Date Brightness Start Highest point End Pass type
(mag) Time Alt. Az. Time Alt. Az. Time Alt. Az.
20 Jun 4.0 08:59:49 10° NNE 09:04:39 43° E 09:09:27 10° S visible
21 Jun 5.2 08:23:29 10° NE 08:27:03 19° E 08:30:33 10° SE visible
21 Jun 3.4 10:01:22 10° N 10:06:13 47° WNW 10:11:03 10° SW visible
22 Jun 3.1 09:23:51 10° NNE 09:28:56 76° ESE 09:33:59 10° S visible
23 Jun 4.4 08:46:55 10° NNE 08:51:27 32° E 08:55:57 10° SSE visible
24 Jun 5.4 08:11:10 10° ENE 08:13:46 14° E 08:16:21 10° ESE visible
24 Jun 3.1 09:48:07 10° N 09:53:08 63° WNW 09:58:07 10° SSW visible
25 Jun 3.5 09:10:47 10° NNE 09:15:47 56° E 09:20:45 10° S visible
26 Jun 4.9 08:34:07 10° NE 08:38:13 24° E 08:42:18 10° SSE visible
26 Jun 3.8 10:12:36 10° N 10:17:14 37° WNW 10:21:51 10° SW visible
27 Jun 3.0 09:34:55 10° NNE 09:40:01 84° WNW 09:45:05 10° SSW visible
28 Jun 4.0 08:57:47 10° NNE 09:02:35 42° E 09:07:22 10° S visible
29 Jun 5.2 08:21:30 10° NE 08:24:58 18° E 08:28:24 10° SE visible
29 Jun 3.4 09:59:18 10° N 10:04:10 49° WNW 10:09:01 10° SW visible
